This demonstration page uses our WeatherBlox Daily Observations layout. Learn more.

Left ArrowRight Arrow

Hourly Observations for October 1, 2022

Temp ( °F °C ) Dew Point ( °F °C ) Humidity (%) Winds ( mph kmh ) Pressure ( in mb ) Visibility ( mi km ) Precip ( " mm )
12:55 am 00:55 Clear 56 13.3 41 5.2 58 58 ESE 7 11 30.10 1019 10 16 0.00 0.00
1:55 am 01:55 Mostly Cloudy 55 12.8 41 5 59 59 SE 5 7 30.10 1019 10 16 0.00 0.00
2:55 am 02:55 Mostly Cloudy 57 14 41 4.8 54 54 ESE 3 6 30.12 1020 10 16 0.00 0.00
3:55 am 03:55 Mostly Cloudy 57 13.8 41 4.9 55 55 ESE 6 9 30.13 1020 10 16 0.00 0.00
4:55 am 04:55 Mostly Cloudy 55 12.9 42 5.3 60 60 ESE 6 9 30.14 1021 10 16 0.00 0.00
5:55 am 05:55 Mostly Cloudy 55 12.9 42 5.8 62 62 ESE 5 7 30.16 1021 10 16 0.00 0.00
6:55 am 06:55 Mostly Cloudy 54 12.1 43 5.9 66 66 ESE 6 9 30.16 1022 10 16 0.00 0.00
7:55 am 07:55 Mostly Sunny 54 12.2 42 5.8 65 65 Calm 30.19 1022 10 16 0.00 0.00
8:55 am 08:55 Mostly Sunny 58 14.2 44 6.5 60 60 ESE 7 11 30.20 1023 10 16 0.00 0.00
9:55 am 09:55 Sunny 61 16.3 44 6.7 53 53 SE 13 20 30.22 1023 10 16 0.00 0.00
10:55 am 10:55 Sunny 67 19.5 43 6.2 42 42 SSE 16 26 30.21 1023 10 16 0.00 0.00
11:55 am 11:55 Sunny 72 22.2 43 6 35 35 S 14 22 30.19 1023 10 16 0.00 0.00
12:55 pm 12:55 Sunny 75 24.1 42 5.4 30 30 SSE 16 26 30.18 1022 10 16 0.00 0.00
1:55 pm 13:55 Sunny 78 25.3 41 4.9 27 27 SSE 14 22 30.16 1021 10 16 0.00 0.00
2:55 pm 14:55 Sunny 79 26.3 40 4.7 25 25 SE 10 17 30.15 1021 10 16 0.00 0.00
3:55 pm 15:55 Sunny 80 26.8 40 4.5 24 24 SE 7 11 30.14 1021 10 16 0.00 0.00
4:55 pm 16:55 Partly Cloudy 80 26.5 39 3.7 23 23 SSE 12 19 30.14 1021 10 16 0.00 0.00
5:55 pm 17:55 Mostly Cloudy 77 25 39 4.1 26 26 ESE 9 15 30.14 1021 10 16 0.00 0.00
6:55 pm 18:55 Mostly Cloudy 73 23 40 4.5 30 30 ESE 8 13 30.15 1021 10 16 0.00 0.00
7:55 pm 19:55 Mostly Cloudy 70 21.3 40 4.4 33 33 ESE 6 9 30.18 1022 10 16 0.00 0.00
8:55 pm 20:55 Mostly Cloudy 67 19.7 40 4.6 37 37 ESE 3 6 30.19 1023 10 16 0.00 0.00
9:55 pm 21:55 Mostly Cloudy 65 18.1 41 5 42 42 Calm 30.21 1023 10 16 0.00 0.00
10:55 pm 22:55 Mostly Cloudy 63 17.3 41 4.9 44 44 Calm 30.22 1023 10 16 0.00 0.00
11:55 pm 23:55 Cloudy 61 16.3 42 5.3 48 48 ESE 5 7 30.23 1024 10 16 0.00 0.00

Powered by AerisWeather